Temp
87 88 90 88 85 83 79 78 76 75 76 75 74 75 76 78 79 81 83 85 85 86 83 80 80 80 76 73 71 70 72 73 74 72 76 75 73 71 70 69 68 69 69
86 87 87 86 84 82 80 77 76 76 76 76 76 76 77 80 80 81 83 84 85 85 84 82 80 79 77 73 72 68 70 72 74 70 69 66 70 70 69 69 68 68 68
84 85 85 84 84 81 80 78 76 76 76 77 77 77 79 81 81 79 79 83 85 85 83 82 81 80 77 74 72 72 72 71 73 74 70 65 63 67 69 68 68 69 69
86 85 85 83 84 82 82 79 77 76 77 77 76 76 75 75 78 79 80 80 83 83 84 82 82 80 79 78 77 77 75 73 71 73 73 70 69 65 63 66 68 69 68
88 85 86 86 85 84 83 81 78 76 77 77 76 75 76 77 78 79 80 79 80 82 84 83 81 80 79 79 77 77 77 75 73 69 70 70 69 68 66 63 65 67 67
89 87 88 87 85 86 84 82 79 76 77 77 76 76 76 76 76 77 77 77 79 80 81 82 81 81 80 79 78 78 76 75 74 73 70 69 67 66 66 62 63 62 65
89 86 85 85 85 85 84 82 80 77 77 76 75 76 77 77 76 77 77 77 78 78 80 80 80 79 80 80 79 78 77 75 74 72 71 70 67 67 66 64 63 62 63
90 88 86 86 86 86 85 84 80 78 77 76 76 75 77 77 77 78 78 78 78 79 81 81 81 81 81 80 79 78 75 74 72 73 73 69 68 69 69 65 63 58 60
76 88 88 87 87 87 85 85 80 79 80 79 75 76 76 76 77 78 78 79 79 82 81 82 81 81 81 80 79 77 75 74 72 73 71 69 70 65 63 61 61 59 54
73 84 88 87 88 89 87 87 82 81 80 80 81 78 78 77 77 77 78 79 80 81 80 80 81 80 80 80 79 76 75 73 72 72 70 68 66 64 63 62 60 59 57
85 90 90 90 89 90 89 88 83 82 81 81 81 81 79 78 78 77 78 79 80 81 80 80 79 79 79 80 79 76 75 74 72 71 68 65 63 61 62 61 60 59 58
92 91 92 89 90 89 90 89 86 83 83 83 82 81 80 79 78 78 78 79 79 80 80 80 79 79 80 79 76 75 76 74 71 69 66 64 68 61 61 61 60 59 59
80 85 88 90 90 90 90 90 89 85 84 83 82 81 79 78 78 77 78 79 79 80 80 80 79 79 80 77 76 75 75 72 71 68 65 63 62 60 59 59 60 59 62
82 86 83 90 91 91 90 90 89 88 85 83 82 80 80 79 78 78 78 79 80 79 79 80 80 80 80 77 76 74 74 71 68 65 62 61 60 60 58 58 56 55 56
81 81 79 87 90 89 88 89 89 88 85 83 82 80 80 80 78 78 79 80 80 80 80 79 80 80 81 79 75 74 74 68 65 62 62 60 66 67 64 58 53 52 51
81 80 81 84 86 84 85 87 87 85 84 83 82 82 78 79 78 78 79 79 79 79 79 79 79 79 81 69 70 74 71 67 63 60 58 59 65 65 66 66 65 58 52
79 78 79 81 81 82 86 86 86 85 83 82 82 80 81 78 78 79 78 79 78 78 78 79 79 75 73 67 68 70 70 66 63 59 59 65 67 62 59 64 64 64 64
73 75 77 78 79 83 84 83 84 85 81 81 81 81 81 79 78 78 78 78 77 78 77 78 77 74 71 65 65 68 68 65 63 61 61 60 59 59 59 58 58 57 56
70 72 76 77 78 81 84 84 82 82 82 81 81 81 81 79 79 78 77 80 78 77 78 78 76 73 68 61 63 68 68 65 64 63 62 61 58 61 62 59 57 56 56
69 69 73 78 77 77 78 83 82 81 79 82 82 81 81 81 79 79 79 78 78 77 79 78 75 69 70 59 62 69 71 64 63 61 62 63 60 62 61 59 57 56 54
67 68 69 75 74 74 77 80 81 80 81 82 83 82 82 81 80 79 79 80 78 78 77 76 73 73 72 64 60 63 71 68 63 61 58 57 59 59 59 59 58 56 57
64 65 65 71 72 71 72 76 78 81 82 82 81 81 81 84 83 81 80 79 78 77 76 74 73 71 69 63 57 61 66 66 65 60 58 56 57 57 59 58 57 58 58
62 64 65 65 66 67 69 67 69 72 80 80 79 79 80 81 81 81 79 79 78 78 76 75 73 71 69 69 57 58 60 63 65 62 59 55 54 56 57 58 59 58 56
60 62 62 63 62 64 66 65 66 69 75 78 78 79 80 79 79 82 81 81 79 79 77 75 73 72 72 70 63 63 62 61 62 60 58 57 56 58 58 58 58 57 57
59 60 59 59 61 62 63 65 64 67 71 77 78 78 80 80 78 79 76 82 82 80 79 75 74 72 72 72 64 63 65 65 61 59 56 55 54 54 55 57 58 57 58
59 59 59 59 59 60 63 64 65 67 69 73 78 77 78 79 78 70 65 52 51 52 60 62 72 74 65 54 53 53 53 52 54 61 59 54 55 56 56 56 56 59 60
MSLP
1007.80 1008.39 1008.98 1009.85 1010.79 1011.35 1012.00 1012.66 1013.41 1013.85 1014.17 1014.70 1015.10 1015.14 1014.97 1014.53 1014.24 1013.93 1014.26 1014.17 1014.29 1014.15 1014.22 1014.31 1014.49 1014.28 1014.50 1014.57 1014.48 1014.47 1014.58 1014.47 1014.29 1014.08 1013.90 1013.75 1014.01 1013.96 1013.78 1013.50 1013.61 1013.70 1014.17
1007.52 1008.20 1008.79 1009.59 1010.53 1011.32 1011.86 1012.54 1013.17 1013.67 1013.98 1014.32 1014.51 1014.69 1014.87 1014.65 1014.37 1014.07 1014.21 1013.91 1013.92 1014.03 1013.99 1014.12 1014.07 1014.14 1014.23 1014.29 1014.55 1014.75 1014.66 1014.27 1014.13 1014.65 1014.45 1014.24 1014.26 1014.17 1014.39 1014.28 1014.29 1014.47 1014.65
1006.67 1007.83 1008.57 1009.33 1010.18 1010.99 1011.68 1012.32 1013.04 1013.50 1013.78 1014.08 1014.23 1014.49 1014.71 1014.42 1014.22 1014.27 1014.19 1013.98 1013.62 1013.81 1013.79 1013.81 1013.79 1013.92 1014.04 1014.31 1014.29 1014.21 1014.57 1014.56 1014.07 1014.14 1014.49 1014.42 1014.84 1014.76 1015.22 1015.00 1014.91 1014.50 1014.14
1006.73 1007.20 1008.09 1008.89 1009.75 1010.64 1011.34 1011.93 1012.64 1013.42 1013.70 1013.96 1014.23 1014.50 1014.61 1014.70 1014.35 1014.22 1014.13 1014.04 1013.69 1013.70 1013.61 1013.47 1013.34 1013.66 1013.76 1013.81 1014.06 1014.11 1014.34 1014.51 1014.72 1014.32 1014.25 1014.67 1014.91 1015.27 1015.37 1015.02 1014.78 1014.31 1014.56
1006.05 1006.49 1007.13 1008.17 1009.01 1009.99 1010.85 1011.57 1012.34 1013.11 1013.57 1013.85 1014.13 1014.37 1014.43 1014.36 1014.21 1014.11 1014.12 1014.17 1014.10 1013.71 1013.43 1013.44 1013.56 1013.88 1013.99 1013.99 1014.15 1014.23 1014.31 1014.29 1014.60 1014.96 1014.74 1014.70 1014.97 1015.17 1015.45 1015.45 1015.24 1014.96 1014.96
1005.53 1006.01 1006.71 1007.58 1008.45 1009.36 1010.37 1011.14 1011.95 1012.74 1013.19 1013.53 1013.93 1014.25 1014.45 1014.33 1014.48 1014.62 1014.61 1014.36 1014.12 1014.01 1013.72 1013.60 1013.71 1013.73 1013.99 1014.05 1014.11 1014.31 1014.44 1014.55 1014.60 1014.65 1014.96 1015.43 1015.59 1015.67 1015.75 1015.92 1015.81 1015.87 1016.10
1005.12 1005.85 1006.18 1006.95 1007.85 1008.67 1009.57 1010.53 1011.37 1012.22 1012.81 1013.31 1013.66 1013.99 1014.26 1014.37 1014.57 1014.63 1014.59 1014.62 1014.26 1014.26 1013.84 1013.67 1013.81 1013.98 1013.96 1014.06 1014.20 1014.47 1014.57 1014.75 1014.80 1015.05 1015.41 1015.54 1015.46 1015.55 1015.68 1015.99 1016.14 1016.22 1016.34
1004.83 1005.45 1005.63 1006.26 1006.95 1007.87 1008.88 1009.75 1010.80 1011.67 1012.35 1012.85 1013.25 1013.51 1013.88 1014.23 1014.45 1014.54 1014.45 1014.44 1014.34 1014.38 1014.09 1013.90 1014.00 1014.05 1013.79 1014.08 1014.36 1014.57 1014.79 1014.90 1015.22 1015.39 1015.41 1015.45 1015.35 1015.42 1015.45 1015.91 1016.23 1016.43 1016.63
1004.56 1004.98 1004.82 1005.71 1006.22 1006.96 1007.88 1008.85 1010.03 1010.85 1011.64 1012.23 1012.82 1013.21 1013.46 1013.86 1014.15 1014.31 1014.40 1014.42 1014.32 1014.21 1014.08 1014.01 1014.07 1014.09 1014.07 1014.30 1014.38 1014.65 1014.90 1015.14 1015.49 1015.53 1015.55 1015.69 1015.86 1015.84 1015.94 1016.05 1016.12 1016.54 1017.45
1005.13 1005.06 1004.33 1004.78 1005.43 1005.77 1006.92 1008.04 1009.18 1010.00 1010.75 1011.54 1012.09 1012.64 1013.00 1013.35 1013.69 1014.00 1014.26 1014.34 1014.23 1014.25 1014.21 1014.09 1014.09 1014.15 1014.21 1014.24 1014.37 1014.69 1015.14 1015.38 1015.55 1015.64 1015.85 1016.08 1016.28 1016.23 1016.19 1016.27 1016.33 1016.57 1017.19
1002.57 1002.87 1003.62 1003.69 1004.32 1005.11 1005.90 1006.90 1008.27 1009.29 1010.03 1010.76 1011.39 1012.01 1012.54 1012.96 1013.35 1013.60 1013.83 1014.06 1014.15 1013.99 1014.07 1014.11 1014.13 1014.14 1014.28 1014.22 1014.39 1014.75 1015.10 1015.32 1015.66 1015.87 1016.37 1016.71 1016.67 1016.75 1016.68 1016.62 1016.64 1017.02 1017.16
1000.63 1001.55 1002.36 1002.95 1003.43 1004.38 1005.13 1006.05 1007.26 1008.41 1009.12 1009.91 1010.70 1011.33 1011.83 1012.30 1012.83 1013.19 1013.43 1013.61 1013.81 1013.75 1013.88 1014.02 1014.10 1014.19 1014.23 1014.18 1014.45 1014.79 1015.10 1015.49 1015.91 1016.45 1016.71 1017.13 1017.13 1017.33 1017.37 1017.30 1017.44 1017.40 1017.28
1000.99 1001.41 1002.02 1002.26 1002.71 1003.63 1004.37 1005.33 1006.36 1007.41 1008.35 1009.25 1010.07 1010.74 1011.42 1011.82 1012.27 1012.64 1013.00 1013.30 1013.48 1013.48 1013.67 1013.82 1013.94 1014.05 1014.11 1014.42 1014.68 1014.83 1015.39 1015.92 1016.36 1016.77 1017.11 1017.49 1017.59 1017.92 1018.04 1018.07 1018.18 1018.05 1018.01
1001.10 999.13 1001.09 1001.89 1001.91 1002.77 1003.62 1004.65 1005.66 1006.60 1007.57 1008.57 1009.42 1010.13 1010.74 1011.20 1011.70 1012.15 1012.61 1013.02 1013.22 1013.29 1013.44 1013.59 1013.72 1013.83 1013.91 1014.50 1014.82 1015.18 1015.77 1016.43 1016.92 1017.31 1017.61 1017.77 1017.88 1018.11 1018.42 1018.63 1018.91 1018.85 1018.93
1001.39 1001.54 1001.81 1002.04 1002.01 1002.62 1003.26 1004.07 1004.97 1005.86 1006.80 1007.90 1008.85 1009.48 1010.01 1010.63 1011.17 1011.75 1012.15 1012.57 1012.84 1013.01 1013.14 1013.46 1013.57 1013.65 1013.80 1014.45 1014.86 1015.39 1015.97 1016.70 1017.31 1017.76 1018.03 1018.16 1018.15 1018.29 1018.49 1018.80 1019.17 1019.26 1019.52
1002.06 1001.98 1001.58 1001.27 1001.36 1002.35 1002.84 1003.54 1004.35 1005.25 1006.16 1007.23 1008.11 1008.92 1009.61 1010.16 1010.78 1011.30 1011.75 1012.18 1012.47 1012.74 1012.87 1013.23 1013.37 1013.54 1013.86 1014.25 1014.83 1015.36 1016.17 1016.81 1017.41 1018.12 1018.47 1018.65 1018.60 1018.80 1018.87 1019.05 1019.27 1019.31 1019.72
1003.26 1003.14 1003.27 1002.83 1002.63 1002.50 1002.73 1003.32 1003.84 1004.73 1005.72 1006.68 1007.61 1008.33 1009.06 1009.73 1010.35 1010.83 1011.38 1011.87 1012.16 1012.42 1012.67 1012.92 1013.12 1013.74 1014.09 1014.52 1015.00 1015.54 1016.25 1016.91 1017.56 1018.08 1018.53 1018.92 1019.15 1019.08 1019.25 1019.39 1019.63 1019.79 1019.75
1005.77 1005.10 1004.15 1003.31 1003.09 1003.15 1002.93 1003.45 1004.00 1004.63 1005.49 1006.34 1007.10 1007.80 1008.53 1009.31 1009.95 1010.54 1011.08 1011.47 1011.72 1012.05 1012.39 1012.61 1013.12 1013.79 1014.34 1014.79 1015.25 1015.80 1016.30 1017.00 1017.63 1018.09 1018.43 1018.97 1019.49 1019.43 1019.42 1019.49 1019.81 1020.00 1020.07
1006.65 1006.25 1005.46 1004.45 1003.85 1003.71 1003.41 1003.38 1004.10 1004.68 1005.37 1005.99 1006.59 1007.27 1007.97 1008.77 1009.47 1010.06 1010.59 1010.96 1011.35 1011.70 1011.94 1012.27 1013.07 1013.63 1014.61 1014.94 1015.44 1015.86 1016.59 1017.17 1017.68 1018.07 1018.48 1018.87 1019.28 1019.40 1019.40 1019.62 1019.90 1020.09 1020.22
1007.65 1007.09 1006.47 1005.43 1004.83 1004.83 1004.36 1003.57 1004.35 1004.84 1005.27 1005.67 1006.22 1006.81 1007.46 1008.19 1008.85 1009.40 1009.96 1010.32 1010.75 1011.19 1011.51 1012.10 1012.74 1013.41 1014.35 1014.95 1015.32 1015.84 1016.53 1017.35 1017.82 1018.20 1018.49 1018.76 1019.09 1019.26 1019.39 1019.52 1019.73 1020.17 1020.46
1009.14 1008.46 1007.43 1006.56 1006.06 1005.63 1004.96 1004.28 1004.41 1004.72 1004.97 1005.37 1005.89 1006.46 1006.91 1007.59 1008.21 1008.87 1009.42 1009.84 1010.39 1010.85 1011.35 1011.95 1012.67 1013.32 1013.89 1014.70 1015.19 1015.74 1016.51 1017.17 1017.87 1018.43 1018.90 1018.88 1019.19 1019.36 1019.41 1019.58 1019.86 1020.10 1020.20
1009.99 1009.17 1008.57 1007.54 1006.83 1006.46 1005.92 1005.51 1005.15 1004.87 1004.70 1005.09 1005.69 1006.15 1006.60 1007.09 1007.71 1008.34 1008.99 1009.49 1010.03 1010.57 1011.20 1011.94 1012.75 1013.35 1013.90 1014.43 1015.23 1015.72 1016.19 1016.90 1017.69 1018.63 1018.92 1019.03 1019.27 1019.51 1019.55 1019.75 1020.00 1020.08 1020.22
1010.66 1010.11 1009.27 1008.60 1007.74 1007.23 1007.53 1007.40 1006.81 1005.89 1004.98 1005.09 1005.49 1005.91 1006.40 1006.85 1007.31 1008.01 1008.70 1009.31 1009.74 1010.25 1010.91 1011.61 1012.32 1013.21 1013.96 1014.63 1015.13 1015.53 1016.15 1016.81 1017.47 1018.04 1018.83 1019.32 1019.38 1019.51 1019.67 1019.93 1020.04 1020.09 1020.31
1010.37 1009.93 1009.58 1009.21 1008.37 1008.14 1008.53 1008.65 1008.00 1006.93 1005.58 1005.37 1005.49 1005.66 1006.10 1006.66 1007.17 1007.75 1008.45 1009.01 1009.32 1009.63 1010.23 1011.04 1011.95 1012.67 1013.61 1014.33 1015.20 1015.82 1016.27 1016.79 1017.32 1018.08 1018.75 1019.50 1019.82 1019.76 1019.73 1019.92 1019.99 1020.07 1020.18
1011.02 1010.69 1010.61 1010.09 1009.76 1009.37 1009.44 1009.36 1008.96 1007.73 1006.19 1005.57 1005.59 1005.75 1006.07 1006.50 1007.01 1007.64 1008.22 1008.56 1008.37 1008.58 1009.19 1010.23 1011.08 1011.90 1012.87 1013.63 1014.53 1015.37 1016.09 1016.68 1017.25 1018.24 1019.01 1019.65 1020.17 1020.36 1020.28 1020.09 1020.00 1020.13 1020.24
1012.08 1011.81 1011.55 1011.17 1010.46 1008.91 1009.17 1010.45 1009.38 1008.35 1007.03 1006.14 1005.50 1005.51 1005.81 1006.27 1006.72 1007.63 1008.65 1008.95 1008.82 1008.71 1008.82 1009.47 1010.05 1011.06 1011.82 1012.91 1014.09 1014.99 1015.50 1016.15 1017.11 1018.09 1018.94 1019.47 1019.81 1020.17 1020.37 1020.30 1020.34 1020.17 1020.32
Wind_Speed
14 15 14 15 13 12 10 9 9 8 6 3 2 3 3 3 3 3 7 5 2 3 1 2 3 4 3 3 3 3 4 3 2 2 4 4 6 5 4 2 4 5 4
17 15 14 15 15 13 11 9 8 8 6 5 4 3 2 4 4 3 5 4 1 1 3 2 3 4 2 6 5 2 3 2 3 2 2 3 2 4 2 0 2 2 2
20 18 15 15 15 15 13 10 8 8 6 6 3 1 2 2 0 2 2 3 4 1 2 4 3 4 2 1 1 3 3 4 4 5 2 5 2 3 2 3 4 4 3
15 18 15 14 16 15 13 12 9 8 7 7 2 5 3 2 2 3 4 3 5 4 5 5 4 4 3 5 3 3 2 3 5 5 2 1 4 1 3 3 3 3 4
18 21 20 17 16 17 15 13 11 8 8 7 5 2 3 2 2 2 2 4 5 7 7 5 4 4 3 4 4 5 5 2 1 2 3 3 4 4 2 2 4 4 4
19 20 18 17 15 16 15 14 13 10 9 9 7 6 4 5 2 3 4 1 3 3 6 4 3 3 3 3 3 4 4 4 3 3 4 3 2 1 3 2 2 3 6
19 19 21 18 16 19 18 15 16 14 11 9 8 8 7 4 3 3 2 3 2 2 6 4 3 2 2 2 3 3 5 4 2 4 3 2 2 1 1 2 2 2 1
17 21 21 20 19 17 18 17 17 14 12 9 10 7 8 4 3 3 2 3 2 1 4 2 1 1 2 4 4 2 4 5 5 5 3 1 1 1 0 1 1 3 4
3 18 22 20 20 18 18 19 18 16 15 15 7 8 7 7 6 6 3 3 4 3 3 3 2 3 4 3 4 4 4 6 4 3 5 3 6 6 5 4 3 4 2
17 24 20 22 20 20 16 17 18 18 17 14 13 8 8 7 7 5 4 4 5 2 1 2 3 3 4 5 3 4 5 5 3 4 7 6 4 5 4 4 4 4 4
22 21 21 22 22 19 17 18 17 18 15 14 13 12 9 7 7 6 6 6 4 3 1 2 2 3 3 4 4 5 6 6 6 6 7 7 6 5 5 5 4 4 3
20 17 22 22 21 20 19 18 16 17 17 16 13 13 10 8 8 7 7 7 6 5 4 4 4 3 2 4 6 6 5 6 6 7 8 7 5 7 6 5 6 5 4
14 13 12 20 21 20 19 17 17 18 17 15 14 12 10 9 9 8 7 7 7 7 6 5 6 5 4 6 5 7 6 7 7 7 8 6 7 6 5 6 7 5 6
5 10 14 18 22 20 20 18 17 16 17 15 14 13 12 10 9 7 7 7 7 6 6 5 5 4 4 9 7 7 9 9 8 8 8 7 7 7 7 7 6 6 7
13 12 4 19 16 14 15 16 16 15 17 16 14 13 10 9 8 7 7 7 7 6 6 5 5 5 4 7 9 8 10 11 9 7 7 6 12 16 11 6 6 7 6
15 14 16 4 18 14 15 16 15 14 16 16 15 12 8 9 8 8 7 7 7 7 6 5 6 5 3 15 13 11 10 10 10 9 7 6 12 13 16 14 12 9 6
13 13 10 10 7 5 11 15 15 13 14 15 14 13 12 8 8 8 8 8 8 6 6 7 5 7 8 13 14 16 9 9 9 8 7 7 6 9 7 10 10 9 7
13 13 11 12 12 7 7 8 10 12 13 13 13 12 12 10 8 8 8 8 6 8 6 6 7 9 5 12 14 14 9 8 7 8 7 7 5 6 7 6 6 4 4
11 10 11 9 10 9 5 8 8 10 12 13 13 13 13 11 10 9 9 8 7 6 6 5 9 9 8 11 15 12 8 7 7 7 7 8 6 8 9 7 5 3 2
12 14 15 9 13 14 15 7 7 7 8 11 11 11 12 12 11 11 10 6 6 5 5 6 8 11 11 11 14 12 7 7 6 5 7 10 7 6 6 6 6 3 2
11 13 13 8 11 12 14 5 7 8 7 8 11 11 11 12 10 10 6 8 7 6 6 7 7 10 12 10 13 13 8 8 6 5 4 4 8 7 6 8 4 3 2
12 12 10 10 12 14 15 10 5 3 8 8 9 10 10 10 9 12 9 8 8 8 7 9 7 5 7 10 8 12 11 11 7 6 4 5 8 5 4 5 6 6 6
8 8 8 9 11 15 14 13 12 11 5 8 8 9 9 8 9 11 10 8 8 7 8 8 8 7 5 6 11 11 9 12 7 6 7 9 8 6 5 6 4 3 3
13 12 12 11 13 14 14 13 14 13 5 6 7 7 10 9 7 8 9 9 9 8 9 9 7 8 7 6 5 4 6 9 8 12 9 6 4 2 3 3 3 1 4
12 13 13 14 14 13 13 14 14 13 5 2 6 7 7 9 7 7 5 9 9 9 10 9 10 10 9 8 10 10 7 7 10 10 5 4 2 2 0 1 1 1 3
13 13 14 14 16 17 15 13 13 10 7 5 4 5 6 7 7 7 4 9 6 2 9 17 13 7 12 19 18 16 16 19 18 6 6 4 4 4 4 3 3 1 3
Wind_Direction
158 156 159 147 147 152 143 159 149 169 153 149 174 263 237 240 274 284 184 170 170 99 277 342 22 40 70 311 27 11 353 313 332 12 340 327 81 59 38 21 358 343 343
161 165 163 152 156 160 157 156 155 164 169 156 199 193 169 237 231 261 175 156 54 342 11 321 343 1 33 0 10 80 338 312 16 31 260 333 33 59 162 116 274 281 285
160 169 166 160 158 164 165 159 166 174 175 181 206 277 296 302 79 100 122 199 222 269 307 301 321 327 14 286 334 3 3 331 336 19 76 2 329 8 134 247 231 92 104
166 167 168 165 164 168 166 161 162 170 187 195 190 194 198 211 235 175 200 217 226 232 263 270 293 315 333 342 350 16 24 43 353 344 16 215 215 149 331 332 5 67 111
180 174 171 171 167 163 168 169 162 165 186 205 206 232 215 213 286 288 284 176 217 231 239 241 283 304 325 318 346 358 344 343 7 27 324 346 23 50 84 335 334 18 26
185 175 172 168 164 162 168 169 170 178 183 196 200 214 272 250 304 348 6 289 224 264 270 240 227 267 285 303 321 339 343 353 8 347 10 51 47 2 38 360 320 94 52
180 173 172 176 172 169 172 171 176 184 185 189 193 194 209 254 225 264 297 321 303 359 299 191 219 255 279 328 346 349 349 40 33 23 75 80 99 108 107 111 295 90 138
180 184 177 178 178 171 174 176 177 180 183 183 202 192 197 194 209 227 255 272 305 3 341 246 243 194 315 344 348 349 65 65 66 73 95 92 28 25 18 60 123 18 41
333 208 178 179 180 180 177 180 175 181 186 193 183 198 191 185 198 231 238 243 273 275 287 113 72 6 345 343 346 60 64 86 82 72 48 52 51 62 60 68 78 131 101
216 240 183 178 183 181 174 177 174 179 184 186 195 192 199 187 189 204 218 238 241 261 79 49 41 358 339 321 4 77 103 106 93 76 64 51 44 55 54 60 55 57 106
188 184 188 180 179 181 176 177 173 179 181 186 188 191 191 184 181 198 212 220 229 216 231 264 288 286 300 311 39 98 115 106 94 79 71 56 59 48 45 40 38 46 79
171 178 179 181 175 181 183 183 174 180 183 185 185 192 187 178 180 195 204 205 210 228 220 233 246 256 270 304 110 113 119 107 102 90 79 65 66 55 48 47 28 17 16
277 235 198 179 178 182 183 186 184 181 181 179 183 187 188 182 186 188 192 200 202 218 223 220 233 237 238 96 110 114 105 106 90 95 89 79 68 53 48 42 43 24 45
26 160 174 190 179 182 182 185 187 176 177 178 182 184 187 186 180 181 182 185 205 208 217 222 230 208 221 127 128 115 112 96 86 82 79 73 82 89 73 60 46 43 51
35 45 44 193 184 179 174 178 180 173 172 175 180 185 175 177 166 171 174 177 198 204 217 206 230 222 206 148 135 123 120 111 101 91 89 82 91 87 88 89 59 63 58
26 24 17 144 167 173 171 169 172 165 163 172 181 178 161 168 169 170 171 171 191 203 213 210 218 220 97 136 132 131 122 117 115 113 100 92 94 93 97 92 97 108 105
14 25 16 30 37 131 166 171 170 158 164 169 172 169 172 167 168 169 164 177 193 190 200 204 201 123 137 140 134 121 127 125 132 136 135 125 121 111 109 107 98 97 104
11 6 1 10 16 6 138 139 152 161 155 164 170 165 169 171 161 163 168 183 173 190 187 196 132 138 139 142 127 119 127 127 137 146 151 130 151 162 146 127 114 111 97
358 0 345 356 349 352 327 129 136 147 157 167 170 168 167 166 165 170 169 185 167 183 180 161 143 143 144 154 136 126 132 133 144 142 143 133 132 141 168 136 151 154 105
358 350 342 351 23 358 344 149 149 147 157 165 167 162 163 169 172 171 173 174 175 172 167 146 154 148 155 167 148 142 141 133 137 130 134 130 133 90 94 137 130 105 124
355 342 341 1 24 6 354 197 149 163 161 145 154 159 165 169 164 163 169 171 167 163 171 137 144 152 162 170 159 141 140 144 136 131 131 138 127 109 106 153 123 157 104
358 353 347 353 24 16 10 344 74 271 161 153 155 165 161 170 168 169 172 169 169 168 143 141 138 139 154 149 150 136 143 142 137 146 151 153 143 137 114 96 108 59 57
21 4 355 7 22 22 15 354 341 343 191 155 160 162 160 166 160 169 172 172 175 175 157 161 153 145 153 139 155 146 135 140 136 139 149 150 157 140 85 114 98 47 65
11 10 15 21 24 18 6 349 328 320 6 164 162 159 159 166 168 170 174 180 186 186 171 164 155 147 165 167 148 122 120 121 102 124 133 143 162 129 156 100 322 357 145
13 17 17 8 10 12 4 342 321 322 1 301 168 163 160 176 173 158 192 192 199 194 176 166 160 157 175 182 155 146 147 143 142 120 105 114 115 290 181 293 193 116 52
22 20 8 6 4 1 9 327 322 315 333 354 214 168 163 183 173 149 128 55 30 302 185 164 167 175 154 146 146 145 142 135 140 124 149 150 165 190 197 205 215 151 128